Погода в Кызылорде

Хотите узнать прогноз погоды в Кызылорде? Тогда Вам сюда: Погода в Кызылорде

Поиск расширенной информации на нашем сайте:

Полезная информация:

Новости сайта



02.01.2020
Опубликован Долгосрочный прогноз погоды по городам России и ближнего зарубежья на январь 2020 года.
Карты: Прогноз на январь и февраль 2020 года, Сравнение прогнозируемой аномалии приземной температуры воздуха на январь 2020 года по разным моделям.




Погода в Кызылорде - сегодня

Время (UTC), дата Ветер
(°,м/с) 
Видим.   Явления Облачность Т
(°С)
Тd
(°С)
f(%) Тe
(°С)
Pmin
(гПа)
dP
(гПа)
Po
(мм)
O2
(г/м3)
Тmin Tmax R s Состояние
почвы
12 22.10.21 270 (З) 20000 м    10/0 средняя 
[Ac As]
+8.2 -2.2 48 +7  1033  0.5  763  299           
15 22.10.21 250 (З) н/о    10/0 средняя 
[As trans]
+7.9 -1.2 53 +8  1033.9  0.8  763  299    +10.6       
18 22.10.21 240 (ЮЗ) н/о    10/0 средняя 
[As trans]
+7.8 -0.5 56 +8  1034.2  0.3  764  299    +10.6       
21 22.10.21 220 (ЮЗ) н/о    8/0 средняя 
[Ac trans]
+7.4 -0 59 +8  1033.7  -0.5  763  299           
00 23.10.21 тихо ()   н/о    8/0 средняя 
[Ac trans]
+5.5 -0.9 63 +6  1033.5  -0.2  763  301           
03 23.10.21 240 (ЮЗ) 50000 м    6/0 верхняя 
[Cc]
+4.8 -4.3 52 +6  1034.2  0.6  763  303           
06 23.10.21 230 (ЮЗ) 20000 м    6/0 верхняя 
[Ci sp]
+12.2 -5 30 +13  1034  0.1  764  295  +4.7         
09 23.10.21 210 (ЮЗ) 20000 м    4/0 верхняя 
[Ci fib]
+15.1 -3 29 +16  1032  -1.7  762  291           
12 23.10.21 210 (ЮЗ) 20000 м    3/0 верхняя 
[Ci fib]
+13.7 -2.2 33 +15  1031.2  -0.9  762  292           
15 23.10.21 тихо ()   н/о    ясно 
+8.2 -3 45 +8  1031.9  0.4  762  298    +16       
18 23.10.21 тихо ()   н/о    ясно 
+6.4 -2.7 52 +6  1030.9  -1.1  761  300    +16       
21 23.10.21 050 (СВ) н/о    ясно 
+5.6 -2.5 56 +6  1029.3  -1.6  760  300           
00 24.10.21 060 (СВ) н/о    ясно 
+4.2 -2.6 61 +4  1028.1  -1.3  759  301           
03 24.10.21 050 (СВ) 20000 м    ясно 
+3.4 -3 63 +4  1027  -1.1  758  302           
06 24.10.21 080 (В) 20000 м    ясно 
+13.8 -1.4 35 +14  1024.8  -1.6  757  290  +3.2         
09 24.10.21 090 (В) 20000 м    ясно 
+17.7 +0 30 +18  1022  -2.5  755  286           
12 24.10.21 080 (В) 20000 м    ясно 
+17.3 -0.7 29 +18  1020.7  -1.3  754  286           
15 24.10.21 060 (СВ) н/о    ясно 
+12.9 -0.5 40 +13  1020.3  -0.6  754  290    +19.4       
18 24.10.21 070 (В) н/о    ясно 
+9.8 -0.2 50 +10  1018.7  -1.9  752  293    +19.4       
21 24.10.21 070 (В) н/о    ясно 
+7.7 -0.9 54 +8  1017.2  -1.5  751  294           
00 25.10.21 070 (В) н/о    ясно 
+5.1 -1.1 64 +5  1016.5  -0.8  750  297           
03 25.10.21 070 (В) 50000 м    4/0 верхняя 
[Cc]
+3.8 -1.5 68 +5  1016.6  750  298           
06 25.10.21 060 (СВ) 20000 м    3/0 верхняя 
[Ci fib]
+13.8 -0.5 37 +14  1015.7  -0.4  750  288  +3.6         
09 25.10.21 080 (В) 20000 м    3/0 верхняя 
[Ci fib]
+18.1 -0.5 28 +19  1013.5  -1.9  749  283           
12 25.10.21 тихо ()   20000 м    ясно 
+19.4 -0.2 27 +19  1012.7  -0.7  748  281           
Время (UTC), дата Ветер
(°,м/с) 
Видим.   Явления Облачность Т
(°С)
Тd
(°С)
f(%) Тe
(°С)
Pmin
(гПа)
dP
(гПа)
Po
(мм)
O2
(г/м3)
Тmin Tmax R s Состояние
почвы

Для получения пояснительной информации подведите курсор к названию столбца.

ПОГОДА в Кызылорде - архив

Всё, что Вы хотите узнать о погоде в Кызылорде - удобно и подробно!

Выберите нужную дату (начиная с 1 января 2019* года) и нажмите кнопку "Найти".
Будут отображены архивные сводки погоды по пункту Кызылорда, начиная с указанной даты.


Отображать данные в формате CSV (для использования в таблицах Excel)


Внимание! Наш архив погоды предназначен исключительно для личного некоммерческого использования в познавательных целях. Если Вам необходимы официальные справки о состоянии погоды (для производственных, юридических, коммерческих и т.п. целей), обращайтесь в органы Росгидромета.

*Примечание: данная дата относится к архиву по метеостанциям СССР (Россия, СНГ, Балтия).
Архив по метеостанциям Зарубежной Европы и Азии (кроме Китая) хранится 10 дней, по другим регионам земного шара (Китай, Африка, Америка, Австралия, Океания) - 1 день.

Кызылорда - район местоположения метеостанции


Название, широта, долгота, высота метеостанции:
Кызылорда (город) 44.8°ш. 65.5°д. 130 м над ур. моря [Казахстан]

Дополнительная информация

В oтличие oт бoльшинства пoгoдных сайтoв мы публикуем пoдрoбную метеoинфoрмацию в детальнoм прoфессиoнальнoм фoрмате.

Характеристики температуры и влажнoсти вoздуха измеряются на высoте 2 м в тени вдали oт зданий и деревьев.
Скoрoсть ветра измеряется на высoте 10 м (на урoвне рoста челoвека скoрoсть ветра ниже в 1.5-2 раза). Если метеoстанция нахoдится в гoрoде или в лесу, тo скoрoсть ветра занижена на 2-4 м/с пo сравнению с oткрытым местoм. Скoрoсть ветра над акватoриями крупных рек и oзёр, а также на вершинах хoлмoв на 2-5 м/с выше, чем в oбычных услoвиях.
Атмoсфернoе давление в разных тoчках местнoсти мoжет значительнo oтличаться oт давления на метеoстанции, в зависимoсти oт услoвий рельефа (при пoдъёме на 10 м давление пoнижается примернo на 1 мм рт.ст.).